Vero Beach, FL

8:30 AM EST on December 14, 2017 (GMT -0500)
Vero Beach Municipal

Weather History for KVRB - February, 2014

Change the Weather History Date:

Saturday, February 22, 2014

  Actual Average Record
Temperature  
Mean Temperature 74 °F 65 °F  
Max Temperature 81 °F 75 °F 89 °F (2003)
Min Temperature 66 °F 55 °F 35 °F (1977)
Degree Days  
Heating Degree Days 0 3  
Month to date heating degree days 34 80  
Since 1 July heating degree days 235 367  
Cooling Degree Days 9 3  
Month to date cooling degree days 106 58  
Year to date cooling degree days 174 119  
Growing Degree Days 23 (Base 50)    
Moisture  
Dew Point 69 °F    
Average Humidity 85    
Maximum Humidity 100    
Minimum Humidity 69    
Precipitation  
Precipitation 0.63 in 0.09 in 2.00 in (1966)
Month to date precipitation 1.91 2.03  
Year to date precipitation 6.40 4.53  
Sea Level Pressure  
Sea Level Pressure 30.08 in    
Wind  
Wind Speed 5 mph (SW)    
Max Wind Speed 22 mph    
Max Gust Speed 27 mph    
Visibility 6 miles    
Events Fog , Rain , Thunderstorm    
T = Trace of Precipitation, MM = Missing Value Source: NWS Daily Summary

Daily Weather History Graph

Daily Weather History Graph

Search for Another Location

Airport or City:

Trip Planner

Search our weather history database for the weather conditions in past years. The results will help you decide how hot, cold, wet, or windy it might be!

Date:

Astronomy

Feb. 22, 2014 Rise Set
Actual Time 6:52 AM EST 6:17 PM EST
Civil Twilight 6:29 AM EST 6:41 PM EST
Nautical Twilight 6:01 AM EST 7:08 PM EST
Astronomical Twilight 5:34 AM EST 7:35 PM EST
Moon 12:34 AM EST (2/22) 11:40 AM EST (2/22)
Length of Visible Light 12h 12m
Length of Day
11h 25m
Waning Gibbous, 50% of the Moon is Illuminated
Feb 22
Waning Gibbous
Feb 22
Last Quarter
Mar 1
New
Mar 8
First Quarter
Mar 16
Full

Hourly Weather History & Observations

Time (EST) Temp. Heat Index Dew Point Humidity Pressure Visibility Wind Dir Wind Speed Gust Speed Precip Events Conditions
12:53 AM 72.0 °F - 69.1 °F 91% 30.07 in 10.0 mi Calm Calm - N/A Thunderstorm Scattered Clouds
1:08 AM 72.0 °F - 68.0 °F 87% 30.07 in 10.0 mi SW 3.5 mph - N/A Thunderstorm Mostly Cloudy
1:35 AM 72.0 °F - 70.0 °F 93% 30.07 in 10.0 mi SSW 4.6 mph - N/A   Overcast
1:48 AM 71.6 °F - 69.8 °F 94% 30.07 in 10.0 mi SSW 4.6 mph - N/A   Mostly Cloudy
1:53 AM 72.0 °F - 70.0 °F 93% 30.06 in 10.0 mi SSW 3.5 mph - N/A   Overcast
2:53 AM 69.1 °F - 68.0 °F 96% 30.04 in 10.0 mi Calm Calm - N/A   Partly Cloudy
3:08 AM 70.0 °F - 69.1 °F 97% 30.04 in 10.0 mi South 3.5 mph - N/A   Mostly Cloudy
3:53 AM 71.1 °F - 69.1 °F 93% 30.05 in 10.0 mi WSW 3.5 mph - N/A   Overcast
4:13 AM 70.0 °F - 69.1 °F 97% 30.05 in 10.0 mi SW 3.5 mph - N/A   Scattered Clouds
4:53 AM 70.0 °F - 69.1 °F 97% 30.04 in 9.0 mi WSW 3.5 mph - N/A   Clear
5:08 AM 69.1 °F - 68.0 °F 96% 30.05 in 2.5 mi Calm Calm - N/A   Clear
5:15 AM 69.1 °F - 68.0 °F 96% 30.05 in 5.0 mi SSW 3.5 mph - N/A   Clear
5:35 AM 68.0 °F - 66.9 °F 96% 30.05 in 1.8 mi Calm Calm - N/A   Clear
5:40 AM 66.9 °F - 66.0 °F 97% 30.05 in 0.8 mi Calm Calm - N/A   Mist
5:53 AM 68.0 °F - 66.0 °F 93% 30.06 in 0.8 mi Calm Calm - N/A   Mist
6:07 AM 68.0 °F - 66.9 °F 96% 30.06 in 1.5 mi WSW 3.5 mph - N/A   Mostly Cloudy
6:18 AM 66.9 °F - 66.0 °F 97% 30.07 in 0.5 mi West 3.5 mph - N/A Fog Fog
6:35 AM 66.9 °F - 66.0 °F 97% 30.08 in 0.8 mi South 3.5 mph - N/A   Mostly Cloudy
6:41 AM 68.0 °F - 66.9 °F 96% 30.08 in 2.0 mi SW 3.5 mph - N/A   Mostly Cloudy
6:49 AM 68.0 °F - 68.0 °F 100% 30.08 in 5.0 mi SW 3.5 mph - N/A   Overcast
6:53 AM 66.9 °F - 66.9 °F 100% 30.08 in 5.0 mi WSW 3.5 mph - N/A   Overcast
7:35 AM 71.1 °F - 70.0 °F 96% 30.09 in 6.0 mi South 3.5 mph - N/A   Overcast
7:42 AM 71.1 °F - 70.0 °F 96% 30.10 in 5.0 mi SSW 3.5 mph - N/A   Overcast
7:53 AM 71.1 °F - 70.0 °F 96% 30.10 in 5.0 mi SW 4.6 mph - N/A   Overcast
8:12 AM 72.0 °F - 71.1 °F 97% 30.11 in 6.0 mi SSW 5.8 mph - N/A   Overcast
8:22 AM 72.0 °F - 71.1 °F 97% 30.11 in 2.5 mi SSW 5.8 mph - N/A   Overcast
8:28 AM 72.0 °F - 71.1 °F 97% 30.11 in 0.8 mi SW 6.9 mph - N/A   Overcast
8:45 AM 73.0 °F - 72.0 °F 96% 30.11 in 1.8 mi WSW 5.8 mph - N/A   Overcast
8:53 AM 73.0 °F - 73.0 °F 100% 30.11 in 3.0 mi WSW 5.8 mph - N/A   Overcast
9:01 AM 73.0 °F - 73.0 °F 100% 30.12 in 7.0 mi SW 5.8 mph - N/A   Scattered Clouds
9:53 AM 77.0 °F - 72.0 °F 84% 30.13 in 10.0 mi SW 10.4 mph - N/A   Overcast
10:50 AM 78.8 °F - 71.6 °F 78% 30.12 in 10.0 mi SW 8.1 mph - N/A   Overcast
10:53 AM 78.1 °F - 71.1 °F 79% 30.12 in 10.0 mi SW 8.1 mph - N/A   Overcast
11:53 AM 79.0 °F - 71.1 °F 77% 30.10 in 10.0 mi WSW 9.2 mph - N/A   Overcast
11:56 AM 79.0 °F - 71.1 °F 77% 30.10 in 10.0 mi WSW 9.2 mph - N/A   Overcast
12:53 PM 79.0 °F - 70.0 °F 74% 30.07 in 10.0 mi SW 5.8 mph - N/A   Overcast
1:53 PM 80.1 °F 83.2 °F 70.0 °F 71% 30.04 in 10.0 mi West 4.6 mph - N/A   Mostly Cloudy
2:53 PM 80.1 °F 82.9 °F 69.1 °F 69% 30.01 in 10.0 mi SSW 3.5 mph - N/A   Partly Cloudy
3:37 PM 75.9 °F - 72.0 °F 87% 30.01 in 10.0 mi East 5.8 mph - 0.00 in Thunderstorm Thunderstorm
3:53 PM 75.0 °F - 71.1 °F 87% 30.06 in 6.0 mi WNW 20.7 mph 27.6 mph 0.00 in Rain , Thunderstorm Light Thunderstorms and Rain
3:55 PM 73.0 °F - 70.0 °F 90% 30.08 in 1.2 mi WNW 19.6 mph 27.6 mph 0.01 in Rain , Thunderstorm Light Thunderstorms and Rain
3:58 PM 71.1 °F - 69.1 °F 93% 30.08 in 0.5 mi WSW 17.3 mph 27.6 mph 0.09 in Fog , Rain , Thunderstorm Heavy Thunderstorms and Rain
4:06 PM 70.0 °F - 69.1 °F 97% 30.06 in 0.2 mi Calm Calm - 0.60 in Fog , Rain , Thunderstorm Heavy Thunderstorms and Rain
4:11 PM 70.0 °F - 70.0 °F 100% 30.06 in 1.0 mi Calm Calm - 0.61 in Rain , Thunderstorm Light Thunderstorms and Rain
4:15 PM 71.1 °F - 70.0 °F 96% 30.06 in 4.0 mi Calm Calm - 0.62 in Rain , Thunderstorm Light Thunderstorms and Rain
4:29 PM 73.0 °F - 70.0 °F 90% 30.04 in 8.0 mi NW 3.5 mph - 0.63 in Rain , Thunderstorm Light Rain
4:53 PM 73.0 °F - 70.0 °F 90% 30.04 in 10.0 mi NNE 11.5 mph - 0.63 in   Overcast
5:53 PM 72.0 °F - 70.0 °F 93% 30.06 in 10.0 mi Calm Calm - N/A   Mostly Cloudy
6:53 PM 72.0 °F - 70.0 °F 93% 30.04 in 10.0 mi Calm Calm - N/A   Mostly Cloudy
7:53 PM 70.0 °F - 69.1 °F 97% 30.06 in 10.0 mi SSE 4.6 mph - N/A   Partly Cloudy
8:53 PM 69.1 °F - 68.0 °F 96% 30.10 in 10.0 mi North 4.6 mph - N/A   Mostly Cloudy
9:53 PM 71.1 °F - 70.0 °F 96% 30.10 in 10.0 mi NNE 4.6 mph - N/A   Mostly Cloudy
10:31 PM 71.1 °F - 70.0 °F 96% 30.11 in 8.0 mi Calm Calm - N/A   Mostly Cloudy
10:53 PM 71.1 °F - 70.0 °F 96% 30.10 in 7.0 mi Calm Calm - N/A   Overcast
11:26 PM 70.0 °F - 69.1 °F 97% 30.10 in 1.8 mi Calm Calm - N/A   Clear
11:30 PM 69.1 °F - 68.0 °F 96% 30.10 in 0.8 mi Calm Calm - N/A   Mist
11:41 PM 69.1 °F - 68.0 °F 96% 30.09 in 0.2 mi Calm Calm - N/A Fog Fog
11:53 PM 68.0 °F - 66.9 °F 96% 30.09 in 0.2 mi Calm Calm - N/A Fog Fog